Linton Municipal Airport, ND

7:16 AM CDT on May 25, 2017 (GMT -0500)
Linton Municipal Airport

Weather History for K7L2 - December, 2013

Change the Weather History Date:

Monday, December 16, 2013

  Actual Average (KBIS) Record (KBIS)
Temperature  
Mean Temperature 18 °F -  
Max Temperature 35 °F 26 °F 59 °F (1962)
Min Temperature 1 °F 3 °F -26 °F (1914)
Degree Days  
Heating Degree Days 47    
Moisture  
Dew Point 19 °F    
Average Humidity 85    
Maximum Humidity 100    
Minimum Humidity 70    
Precipitation  
Precipitation 0.00 in - - ()
Sea Level Pressure  
Sea Level Pressure 29.95 in    
Wind  
Wind Speed 8 mph (West)    
Max Wind Speed 18 mph    
Max Gust Speed 24 mph    
Visibility 10 miles    
Events      
Averages and records for this station are not official NWS values.
T = Trace of Precipitation, MM = Missing Value Source: NWS Daily Summary

Daily Weather History Graph

Daily Weather History Graph

Search for Another Location

Airport or City:

Trip Planner

Search our weather history database for the weather conditions in past years. The results will help you decide how hot, cold, wet, or windy it might be!

Date:

Astronomy

Dec. 16, 2013 Rise Set
Actual Time 8:17 AM CST 4:55 PM CST
Civil Twilight 7:43 AM CST 5:30 PM CST
Nautical Twilight 7:04 AM CST 6:08 PM CST
Astronomical Twilight 6:28 AM CST 6:45 PM CST
Moon 4:50 PM CST (12/16) 7:24 AM CST (12/16)
Length of Visible Light 9h 47m
Length of Day
8h 37m
Full, 100% of the Moon is Illuminated
Dec 16
Full
Dec 17
Full
Dec 25
Last Quarter
Jan 1
New
Jan 7
First Quarter

Hourly Weather History & Observations

Time (CST) Temp. Windchill Dew Point Humidity Pressure Visibility Wind Dir Wind Speed Gust Speed Precip Events Conditions
12:15 AM 6.8 °F -12.4 °F 3.2 °F 85% 29.80 in 10.0 mi SE 18.4 mph 21.9 mph N/A   Overcast
12:35 AM 6.8 °F -5.9 °F 5.0 °F 92% 29.84 in 10.0 mi SSE 8.1 mph - N/A   Mostly Cloudy
4:15 AM 3.2 °F - 1.4 °F 92% 29.84 in 10.0 mi Calm Calm - N/A   Clear
4:35 AM 1.4 °F -6.2 °F -0.4 °F 92% 29.86 in 10.0 mi West 3.5 mph - N/A   Clear
4:55 AM 1.4 °F -8.3 °F -0.4 °F 92% 29.86 in 10.0 mi West 4.6 mph - N/A   Clear
5:15 AM 5.0 °F -2.1 °F 3.2 °F 92% 29.87 in 10.0 mi West 3.5 mph - N/A   Mostly Cloudy
5:35 AM 8.6 °F 2.0 °F 6.8 °F 92% 29.85 in 10.0 mi WSW 3.5 mph - N/A   Overcast
5:55 AM 6.8 °F -0.1 °F 5.0 °F 92% 29.85 in 10.0 mi SW 3.5 mph - N/A   Mostly Cloudy
6:15 AM 6.8 °F -3.5 °F 5.0 °F 92% 29.88 in 10.0 mi NW 5.8 mph - N/A   Partly Cloudy
6:35 AM 6.8 °F - 5.0 °F 92% 29.88 in 10.0 mi Calm Calm - N/A   Clear
6:55 AM 8.6 °F - 6.8 °F 92% 29.88 in 10.0 mi Calm Calm - N/A   Clear
7:15 AM 8.6 °F - 6.8 °F 92% 29.88 in 10.0 mi Calm Calm - N/A   Clear
7:35 AM 5.0 °F -5.6 °F 5.0 °F 100% 29.88 in 10.0 mi East 5.8 mph - N/A   Clear
7:55 AM 5.0 °F - 1.4 °F 85% 29.90 in 10.0 mi Calm Calm - N/A   Clear
8:15 AM 6.8 °F - 5.0 °F 92% 29.90 in 4.0 mi Calm Calm - N/A   Scattered Clouds
8:35 AM 6.8 °F - 5.0 °F 92% 29.91 in 5.0 mi Calm Calm - N/A   Scattered Clouds
8:55 AM 10.4 °F - 8.6 °F 92% 29.91 in 9.0 mi Calm Calm - N/A   Clear
9:15 AM 10.4 °F 4.0 °F 8.6 °F 92% 29.93 in 10.0 mi North 3.5 mph - N/A   Clear
9:35 AM 14.0 °F 8.2 °F 14.0 °F 100% 29.94 in 9.0 mi WNW 3.5 mph - N/A   Scattered Clouds
9:55 AM 15.8 °F - 15.8 °F 100% 29.94 in 10.0 mi Calm Calm - N/A   Mostly Cloudy
10:15 AM 17.6 °F - 17.6 °F 100% 29.95 in 10.0 mi Calm Calm - N/A   Mostly Cloudy
10:35 AM 21.2 °F - 21.2 °F 100% 29.97 in 10.0 mi Calm Calm - N/A   Mostly Cloudy
10:55 AM 21.2 °F - 21.2 °F 100% 29.97 in 10.0 mi Calm Calm - N/A   Mostly Cloudy
11:15 AM 24.8 °F - 23.0 °F 93% 29.97 in 10.0 mi Calm Calm - N/A   Mostly Cloudy
11:35 AM 26.6 °F - 23.0 °F 86% 29.97 in 10.0 mi Calm Calm - N/A   Scattered Clouds
11:55 AM 26.6 °F 21.2 °F 23.0 °F 86% 29.96 in 10.0 mi SSW 4.6 mph - N/A   Scattered Clouds
12:15 PM 28.4 °F - 23.0 °F 80% 29.96 in 10.0 mi Calm Calm - N/A   Partly Cloudy
12:35 PM 32.0 °F 24.2 °F 24.8 °F 75% 29.96 in 10.0 mi West 9.2 mph - N/A   Clear
12:55 PM 32.0 °F 24.8 °F 24.8 °F 75% 29.96 in 10.0 mi WNW 8.1 mph - N/A   Clear
1:15 PM 33.8 °F 27.7 °F 26.6 °F 75% 29.95 in 10.0 mi West 6.9 mph - N/A   Clear
1:35 PM 32.0 °F 25.6 °F 26.6 °F 80% 29.95 in 10.0 mi WSW 6.9 mph - N/A   Clear
1:55 PM 32.0 °F 27.5 °F 26.6 °F 80% 29.96 in 10.0 mi West 4.6 mph - N/A   Clear
2:15 PM 33.8 °F 26.4 °F 26.6 °F 75% 29.96 in 10.0 mi WNW 9.2 mph - N/A   Clear
2:35 PM 35.6 °F 28.0 °F 26.6 °F 70% 29.96 in 10.0 mi West 10.4 mph - N/A   Clear
2:55 PM 35.6 °F 27.5 °F 26.6 °F 70% 29.96 in 10.0 mi WNW 11.5 mph 17.3 mph N/A   Clear
3:15 PM 35.6 °F 26.6 °F 28.4 °F 75% 29.96 in 10.0 mi WNW 13.8 mph 18.4 mph N/A   Clear
3:35 PM 35.6 °F 27.5 °F 26.6 °F 70% 29.97 in 10.0 mi WNW 11.5 mph - N/A   Clear
3:55 PM 35.6 °F 27.5 °F 28.4 °F 75% 29.97 in 10.0 mi WNW 11.5 mph - N/A   Clear
4:15 PM 33.8 °F 25.8 °F 28.4 °F 81% 29.97 in 10.0 mi WNW 10.4 mph - N/A   Clear
4:35 PM 33.8 °F 25.8 °F 28.4 °F 81% 29.97 in 10.0 mi WNW 10.4 mph - N/A   Clear
4:55 PM 33.8 °F 25.3 °F 28.4 °F 81% 29.98 in 10.0 mi West 11.5 mph - N/A   Clear
5:15 PM 33.8 °F 24.8 °F 28.4 °F 81% 29.98 in 10.0 mi West 12.7 mph - N/A   Scattered Clouds
5:35 PM 32.0 °F 22.5 °F 28.4 °F 87% 29.99 in 10.0 mi West 12.7 mph - N/A   Partly Cloudy
5:55 PM 32.0 °F 21.6 °F 26.6 °F 80% 30.00 in 10.0 mi WNW 15.0 mph 20.7 mph N/A   Clear
6:15 PM 32.0 °F 21.2 °F 26.6 °F 80% 30.00 in 10.0 mi WNW 16.1 mph 21.9 mph N/A   Clear
6:35 PM 32.0 °F 22.1 °F 28.4 °F 87% 30.00 in 10.0 mi West 13.8 mph 20.7 mph N/A   Clear
6:55 PM 32.0 °F 23.0 °F 26.6 °F 80% 29.99 in 10.0 mi WSW 11.5 mph - N/A   Clear
7:15 PM 32.0 °F 22.1 °F 28.4 °F 87% 29.98 in 10.0 mi West 13.8 mph 21.9 mph N/A   Clear
7:35 PM 32.0 °F 21.6 °F 28.4 °F 87% 29.98 in 10.0 mi West 15.0 mph 21.9 mph N/A   Scattered Clouds
7:55 PM 32.0 °F 21.2 °F 28.4 °F 87% 29.98 in 10.0 mi West 16.1 mph 21.9 mph N/A   Mostly Cloudy
8:15 PM 32.0 °F 22.5 °F 26.6 °F 80% 30.00 in 10.0 mi West 12.7 mph 21.9 mph N/A   Partly Cloudy
8:35 PM 32.0 °F 20.5 °F 26.6 °F 80% 30.00 in 10.0 mi West 18.4 mph 24.2 mph N/A   Partly Cloudy
8:55 PM 32.0 °F 20.8 °F 26.6 °F 80% 29.99 in 10.0 mi West 17.3 mph 20.7 mph N/A   Clear
9:15 PM 32.0 °F 20.8 °F 26.6 °F 80% 30.01 in 10.0 mi West 17.3 mph 24.2 mph N/A   Scattered Clouds
9:35 PM 32.0 °F 22.1 °F 26.6 °F 80% 30.00 in 10.0 mi West 13.8 mph - N/A   Overcast
9:55 PM 32.0 °F 22.5 °F 26.6 °F 80% 30.00 in 10.0 mi West 12.7 mph 21.9 mph N/A   Overcast
10:15 PM 32.0 °F 23.0 °F 26.6 °F 80% 30.01 in 10.0 mi West 11.5 mph 18.4 mph N/A   Overcast
10:35 PM 32.0 °F 21.6 °F 26.6 °F 80% 30.00 in 10.0 mi West 15.0 mph 19.6 mph N/A   Mostly Cloudy
10:55 PM 32.0 °F 22.5 °F 26.6 °F 80% 30.01 in 10.0 mi West 12.7 mph 17.3 mph N/A   Partly Cloudy
11:15 PM 32.0 °F 21.2 °F 26.6 °F 80% 30.01 in 10.0 mi WNW 16.1 mph 23.0 mph N/A   Clear
11:55 PM 32.0 °F 20.8 °F 26.6 °F 80% 30.01 in 10.0 mi WNW 17.3 mph 24.2 mph N/A   Clear